Tracking 28125 objects as of 4-Oct-2023
HD Live streaming from Space Station
objects crossing your sky now

THORAD AGENA D DEB

Track THORAD AGENA D DEB now!
10-day predictions


NORAD ID: 4743
Int'l Code: 1970-025CS
Perigee: 1,026.1 km
Apogee: 1,078.6 km
Inclination: 100.0 °
Period: 106.1 minutes
Semi major axis: 7423 km
RCS: 0.1102 m2 (medium)
Launch date: April 8, 1970
Source: United States (US)
Launch site: AIR FORCE WESTERN TEST RANGE (AFWTR)

Note: This is SATELLITE DEBRIS
Your satellite tracking list
Your tracking list is empty




NASA's NSSDC Master Catalog

Two Line Element Set (TLE):
1 04743U 70025CS  23276.76683566  .00000474  00000-0  72535-3 0  9999
2 04743 100.0061 328.2604 0035313 253.7330 220.3047 13.57388206639033
Source of the keplerian elements: AFSPC